Location: Newark
(49.3000°N, 9.4667°E)
Time: 03:59:37
(UTC+00:00)

SR - All Passes

Search period start: 23 May 2019 00:00
Search period end: 02 June 2019 00:00
Orbit: 583 x 873 km, 66.7° (Epoch: 22 May)

Date Brightness Start Highest point End Pass type
(mag) Time Alt. Az. Time Alt. Az. Time Alt. Az.
23 May - 09:20:09 10° SE 09:22:43 16° ESE 09:25:15 10° ENE daylight
23 May - 10:59:55 10° SW 11:04:11 70° NW 11:08:28 10° NNE daylight
23 May - 12:44:22 10° WNW 12:47:01 16° NNW 12:49:41 10° N daylight
23 May - 16:13:19 10° N 16:15:13 12° NNE 16:17:07 10° NE daylight
23 May - 17:54:08 10° NNW 17:58:25 41° NE 18:02:58 10° ESE daylight
23 May - 19:36:15 10° NW 19:40:23 34° WSW 19:44:49 10° S daylight
24 May - 10:10:23 10° SSW 10:14:37 59° ESE 10:18:49 10° NE daylight
24 May - 11:53:29 10° W 11:56:58 24° NW 12:00:28 10° NNE daylight
24 May - 17:04:47 10° NNW 17:08:31 25° NE 17:12:28 10° E daylight
24 May - 18:46:22 10° NW 18:50:54 65° WSW 18:55:46 10° SSE daylight
25 May - 09:21:28 10° S 09:25:10 29° ESE 09:28:52 10° NE daylight
25 May - 11:03:02 10° WSW 11:07:04 39° NW 11:11:07 10° NNE daylight
25 May - 12:48:46 10° NW 12:50:19 12° NNW 12:51:52 10° N daylight
25 May - 16:15:32 10° N 16:18:29 17° NNE 16:21:32 10° ENE daylight
25 May - 17:56:45 10° NNW 18:01:17 69° NE 18:06:10 10° SE daylight
25 May - 19:39:37 10° WNW 19:42:55 19° WSW 19:46:23 10° SSW daylight
26 May - 08:33:31 10° SE 08:35:53 15° ESE 08:38:15 10° ENE daylight
26 May - 10:13:03 10° SW 10:17:19 74° NW 10:21:37 10° NNE daylight
26 May - 11:57:22 10° WNW 12:00:07 16° NNW 12:02:53 10° N daylight
26 May - 15:26:30 10° N 15:28:17 12° NNE 15:30:08 10° NE daylight
26 May - 17:07:17 10° NNW 17:11:32 39° NE 17:16:04 10° ESE daylight
26 May - 18:49:19 10° NW 18:53:33 36° WSW 18:58:04 10° S daylight
27 May - 09:23:34 10° SSW 09:27:45 55° ESE 09:31:56 10° NE daylight
27 May - 11:06:32 10° W 11:10:04 25° NW 11:13:39 10° NNE daylight
27 May - 16:17:56 10° NNW 16:21:38 24° NE 16:25:32 10° E daylight
27 May - 17:59:29 10° NW 18:04:03 69° WSW 18:08:58 10° SSE daylight
27 May - 19:44:44 10° W 19:45:20 10° WSW 19:45:56 10° WSW daylight
28 May - 08:34:42 10° S 08:38:20 27° ESE 08:41:56 10° NE daylight
28 May - 10:16:08 10° WSW 10:20:11 41° NW 10:24:16 10° NNE daylight
28 May - 12:01:42 10° NW 12:03:23 12° NNW 12:05:06 10° N daylight
28 May - 15:28:41 10° N 15:31:35 17° NNE 15:34:34 10° ENE daylight
28 May - 17:09:53 10° NNW 17:14:25 66° NE 17:19:19 10° SE daylight
28 May - 18:52:39 10° WNW 18:56:06 20° WSW 18:59:43 10° SSW daylight
29 May - 07:46:55 10° SE 07:49:04 14° ESE 07:51:12 10° ENE daylight
29 May - 09:26:11 10° SW 09:30:27 79° NW 09:34:45 10° NE daylight
29 May - 11:10:23 10° WNW 11:13:12 17° NNW 11:16:04 10° N daylight
29 May - 14:39:39 10° N 14:41:23 12° NNE 14:43:08 10° NE daylight
29 May - 16:20:25 10° NNW 16:24:39 37° NE 16:29:11 10° ESE daylight
29 May - 18:02:25 10° NW 18:06:43 38° WSW 18:11:19 10° S daylight
30 May - 08:36:44 10° SSW 08:40:53 52° ESE 08:45:02 10° NE daylight
30 May - 10:19:34 10° W 10:23:10 26° NW 10:26:48 10° NNE daylight
30 May - 15:31:04 10° NNW 15:34:44 24° NE 15:38:36 10° E daylight
30 May - 17:12:36 10° NW 17:17:12 73° WSW 17:22:10 10° SSE daylight
30 May - 18:57:10 10° W 18:58:31 11° WSW 18:59:54 10° WSW daylight
31 May - 07:47:56 10° S 07:51:29 26° ESE 07:55:01 10° ENE daylight
31 May - 09:29:13 10° WSW 09:33:17 43° NW 09:37:25 10° NNE daylight
31 May - 11:14:38 10° NW 11:16:28 12° NNW 11:18:20 10° N daylight
31 May - 14:41:50 10° N 14:44:41 16° NNE 14:47:37 10° ENE daylight
31 May - 16:23:00 10° NNW 16:27:33 62° NE 16:32:28 10° SE daylight
31 May - 18:05:41 10° WNW 18:09:16 22° WSW 18:13:03 10° SSW daylight
01 Jun - 07:00:19 10° SE 07:02:14 13° ESE 07:04:07 10° E daylight
01 Jun - 08:39:19 10° SW 08:43:35 83° NW 08:47:53 10° NE daylight
01 Jun - 10:23:23 10° WNW 10:26:17 18° NNW 10:29:15 10° NNE daylight
01 Jun - 13:52:49 10° N 13:54:27 12° NNE 13:56:08 10° NE daylight
01 Jun - 15:33:33 10° NNW 15:37:47 36° NE 15:42:17 10° ESE daylight
01 Jun - 17:15:30 10° NW 17:19:52 41° WSW 17:24:34 10° S daylight
